KO4WQD Weather Reports


time (UTC)temp
F
wind
direction
speed
knots
gust
knots
rain 1hr
in
rain 24hr
in
rain mn
in
humidity
%
barometer
mb
20260504081509 43 188 0.9 1.7 0.00 0.00 0.00 81 1014.9
20260504044519 41 243 0.0 1.7 0.00 0.00 0.00 76 1015.8
20260504043016 41 243 0.0 1.7 0.00 0.00 0.00 75 1015.7
20260504041523 42 249 0.9 1.7 0.00 0.00 0.00 74 1015.6
20260504040026 42 269 0.9 1.7 0.00 0.00 0.00 72 1015.6
20260504034508 43 292 0.0 1.7 0.00 0.00 0.00 72 1015.6
20260504033030 43 192 0.0 1.7 0.00 0.00 0.00 69 1015.6
20260504031515 44 248 0.9 0.9 0.00 0.00 0.00 68 1015.4
20260504030026 44 217 0.9 1.7 0.00 0.00 0.00 66 1015.4
20260504024507 45 241 0.0 1.7 0.00 0.00 0.00 66 1015.3
20260504023008 45 241 0.0 1.7 0.00 0.00 0.00 63 1015.2
20260504021525 45 236 0.0 1.7 0.00 0.00 0.00 60 1015.0
20260504020031 47 236 0.0 1.7 0.00 0.00 0.00 59 1014.8
20260504014536 47 236 0.9 1.7 0.00 0.00 0.00 59 1014.7
20260504013012 47 274 0.0 1.7 0.00 0.00 0.00 64 1014.5
20260504011521 49 274 0.0 1.7 0.00 0.00 0.00 56 1014.5
20260504010027 50 274 0.0 1.7 0.00 0.00 0.00 54 1014.5
20260504004524 50 273 0.0 1.7 0.00 0.00 0.00 56 1014.4
20260504003007 52 273 0.0 0.0 0.00 0.00 0.00 61 1014.3
20260504001510 54 273 0.0 1.7 0.00 0.00 0.00 56 1014.3
20260504000017 56 269 0.0 0.9 0.00 0.00 0.00 55 1014.3
20260503234520 58 269 0.0 1.7 0.00 0.00 0.00 38 1014.1
20260503233029 59 216 0.0 2.6 0.00 0.00 0.00 36 1014.1
20260503231514 59 216 0.9 1.7 0.00 0.00 0.00 33 1014.0
20260503230014 60 247 0.9 3.5 0.00 0.00 0.00 35 1014.0
20260503224519 60 191 0.9 4.3 0.00 0.00 0.00 31 1013.9
20260503223024 61 343 1.7 7.8 0.00 0.00 0.00 30 1013.9
20260503221529 61 169 1.7 6.1 0.00 0.00 0.00 31 1013.9
20260503220018 62 209 1.7 7.0 0.00 0.00 0.00 30 1014.0
20260503214525 62 125 3.5 8.7 0.00 0.00 0.00 29 1014.0
20260503213023 62 340 0.9 5.2 0.00 0.00 0.00 30 1014.0
20260503211524 62 278 2.6 7.0 0.00 0.00 0.00 29 1014.2
20260503210028 62 54 2.6 5.2 0.00 0.00 0.00 29 1014.2
20260503204519 62 263 3.5 9.6 0.00 0.00 0.00 30 1014.1
20260503203022 62 232 1.7 9.6 0.00 0.00 0.00 31 1014.3
20260503201526 61 247 1.7 7.0 0.00 0.00 0.00 30 1014.2
20260503200025 61 259 1.7 7.0 0.00 0.00 0.00 31 1014.4
20260503194514 61 220 3.5 8.7 0.00 0.00 0.00 32 1014.7
20260503193017 60 279 4.3 7.8 0.00 0.00 0.00 34 1015.0
20260503191534 60 337 2.6 9.6 0.00 0.00 0.00 30 1015.4
20260503190027 59 51 2.6 9.6 0.00 0.00 0.00 33 1015.5
20260503184515 59 17 2.6 11.3 0.00 0.00 0.00 33 1015.6
20260503183018 59 231 4.3 9.6 0.00 0.00 0.00 35 1015.7
20260503181506 58 12 4.3 9.6 0.00 0.00 0.00 34 1015.7
20260503180008 58 30 3.5 13.9 0.00 0.00 0.00 36 1016.0
20260503174512 57 226 1.7 8.7 0.00 0.00 0.00 38 1016.1
20260503173017 56 154 1.7 9.6 0.00 0.00 0.00 39 1016.2
20260503171504 56 242 5.2 13.9 0.00 0.00 0.00 43 1016.4